Glendale Luke AFB, AZ

2:26 PM MST on December 09, 2019 (GMT -0700)
Luke Air Force Base

Weather History for KLUF - August, 2019

Change the Weather History Date:

Friday, August 30, 2019

  Actual Average Record
Temperature  
Mean Temperature 96 °F -  
Max Temperature 109 °F 105 °F 112 °F (1984)
Min Temperature 83 °F 72 °F 57 °F (1942)
Cooling Degree Days 31    
Growing Degree Days 46 (Base 50)    
Moisture  
Dew Point 60 °F    
Average Humidity 30    
Maximum Humidity 58    
Minimum Humidity 14    
Precipitation  
Precipitation 0.00 in - - ()
Sea Level Pressure  
Sea Level Pressure 29.76 in    
Wind  
Wind Speed 5 mph (WNW)    
Max Wind Speed 15 mph    
Max Gust Speed 23 mph    
Visibility 10 miles    
Events      
Averages and records for this station are not official NWS values.
T = Trace of Precipitation, MM = Missing Value Source: NWS Daily Summary

Daily Weather History Graph

Daily Weather History Graph

Search for Another Location

Airport or City:

Astronomy

Aug. 30, 2019 Rise Set
Actual Time 6:02 AM MST 6:57 PM MST
Civil Twilight 5:36 AM MST 7:23 PM MST
Nautical Twilight 5:06 AM MST 7:53 PM MST
Astronomical Twilight 4:35 AM MST 8:24 PM MST
Moon 6:09 AM MST (8/30) 7:36 PM MST (8/30)
Length of Visible Light 13h 46m
Length of Day
12h 55m
New Moon, 0% of the Moon is Illuminated
Aug 30
New Moon
Sep 5
First Quarter
Sep 13
Full
Sep 21
Last Quarter
Sep 28
New

Hourly Weather History & Observations

Time (MST) Temp. Heat Index Dew Point Humidity Pressure Visibility Wind Dir Wind Speed Gust Speed Precip Events Conditions
12:58 AM 88.9 °F 90.7 °F 64.8 °F 45% 29.84 in 10.0 mi North 3.5 mph - N/A   Clear
1:58 AM 87.4 °F 89.8 °F 66.4 °F 49% 29.80 in 10.0 mi Calm Calm - N/A   Clear
2:58 AM 86.2 °F 88.8 °F 66.9 °F 52% 29.81 in 10.0 mi NNW 3.5 mph - N/A   Clear
3:58 AM 84.4 °F 87.6 °F 68.0 °F 58% 29.81 in 10.0 mi NW 6.9 mph - N/A   Clear
4:58 AM 83.7 °F 86.5 °F 67.3 °F 58% 29.81 in 10.0 mi North 3.5 mph - N/A   Clear
5:58 AM 83.1 °F 85.0 °F 65.7 °F 55% 29.84 in 10.0 mi North 3.5 mph - N/A   Clear
6:58 AM 84.6 °F 87.1 °F 66.6 °F 55% 29.85 in 10.0 mi NNW 4.6 mph - N/A   Clear
7:56 AM 90.0 °F 92.8 °F 66.4 °F 46% 29.86 in 10.0 mi North 3.5 mph - N/A   Clear
8:58 AM 93.6 °F 95.0 °F 64.0 °F 37% 29.86 in 10.0 mi NNW 3.5 mph - N/A   Clear
9:58 AM 97.3 °F 97.9 °F 61.5 °F 30% 29.86 in 10.0 mi Calm Calm - N/A   Clear
10:58 AM 99.9 °F 100.4 °F 60.8 °F 27% 29.84 in 10.0 mi North 6.9 mph - N/A   Clear
11:58 AM 101.1 °F 101.9 °F 60.8 °F 26% 29.81 in 10.0 mi East 3.5 mph - N/A   Clear
12:58 PM 103.8 °F 106.3 °F 63.1 °F 26% 29.79 in 10.0 mi Calm Calm - N/A   Clear
1:58 PM 106.5 °F 108.0 °F 60.8 °F 22% 29.76 in 10.0 mi SSW 9.2 mph 16.1 mph N/A   Clear
2:23 PM 107.6 °F 109.7 °F 60.8 °F 22% 29.75 in 10.0 mi WSW 13.8 mph 17.3 mph N/A   Clear
2:58 PM 108.3 °F 109.3 °F 59.7 °F 20% 29.72 in 10.0 mi SSW 15.0 mph 23.0 mph N/A   Clear
2:59 PM 107.6 °F 108.2 °F 59.0 °F 20% 29.72 in 10.0 mi SSW 15.0 mph 23.0 mph N/A   Clear
3:03 PM 107.6 °F 108.2 °F 59.0 °F 20% 29.72 in 10.0 mi WSW 13.8 mph 23.0 mph N/A   Clear
3:25 PM 109.4 °F 110.2 °F 59.0 °F 19% 29.70 in 10.0 mi SSW 15.0 mph - N/A   Clear
3:28 PM 109.4 °F 109.4 °F 57.2 °F 18% 29.70 in 10.0 mi WSW 13.8 mph - N/A   Clear
3:58 PM 108.9 °F 108.6 °F 55.9 °F 18% 29.69 in 10.0 mi WSW 11.5 mph 20.7 mph N/A   Clear
4:58 PM 109.6 °F - 49.6 °F 14% 29.67 in 10.0 mi West 10.4 mph - N/A   Clear
5:58 PM 108.9 °F - 49.1 °F 14% 29.66 in 10.0 mi West 9.2 mph - N/A   Clear
6:58 PM 105.8 °F - 52.0 °F 17% 29.68 in 10.0 mi WSW 9.2 mph - N/A   Clear
7:58 PM 101.7 °F 99.7 °F 53.1 °F 20% 29.69 in 10.0 mi West 6.9 mph - N/A   Clear
8:58 PM 98.4 °F 96.9 °F 55.4 °F 24% 29.71 in 10.0 mi NW 5.8 mph - N/A   Clear
9:58 PM 98.8 °F - 50.7 °F 20% 29.72 in 10.0 mi West 4.6 mph - N/A   Clear
10:58 PM 97.3 °F - 48.2 °F 19% 29.73 in 10.0 mi Calm Calm - N/A   Clear
11:58 PM 94.5 °F 92.3 °F 54.1 °F 26% 29.73 in 10.0 mi Calm Calm - N/A   Clear